Date String (YYYY-MM-DD hh:mm:ss) UTC,Instrument flags,Ambient pressure (hPa),Sample flow (lpm),Bypass flow (lpm),Sample temperature (°C),Ambient temperature (°C),ASC tube jacket temperature (°C),LED temperature (°C),Box temperature (°C),Sample RH (%),Span deviation,Mass concentration (μg/m³),Mass concentration (μg/m³),Mass concentration (μg/m³)
DateTimeUTC,F1_M11,P_M11,Q1_M11,Q2_M11,T1_M11,T2_M11,T3_M11,T4_M11,T5_M11,U1_M11,ZSPAN_M11,X0_M11,X2_M11,X1_M11
2022-01-19 19:00:00,,0831.4,4.99,0.00,21.9,21.4,00.0,31.0,23.5,11.7,0000.0,0003.37,0002.79,0002.65
2022-01-19 19:01:00,,0831.4,5.00,0.00,21.9,21.3,00.0,31.0,23.4,11.7,0000.0,0003.31,0002.74,0002.62
2022-01-19 19:02:00,,0831.4,5.01,0.00,21.8,21.2,00.0,31.0,23.4,11.7,0000.0,0003.27,0002.72,0002.62
2022-01-19 19:03:00,,0831.4,4.99,0.00,21.8,21.2,00.0,31.0,23.3,11.7,0000.0,0003.32,0002.71,0002.61
2022-01-19 19:04:00,,0831.4,5.00,0.00,21.7,21.2,00.0,30.9,23.3,11.8,0000.0,0003.59,0002.72,0002.61
2022-01-19 19:05:00,,0831.4,5.01,0.00,21.8,21.9,00.0,31.0,23.6,11.8,0000.0,0003.56,0002.69,0002.59
2022-01-19 19:06:00,,0831.4,4.99,0.00,22.0,22.7,00.0,31.0,23.9,11.7,0000.0,0003.57,0002.69,0002.59
2022-01-19 19:07:00,,0831.4,5.01,0.00,22.1,23.1,00.0,31.0,24.1,11.6,0000.0,0003.65,0002.74,0002.63
2022-01-19 19:08:00,,0831.4,5.01,0.00,22.2,22.8,00.0,31.1,24.1,11.6,0000.0,0003.70,0002.78,0002.67
2022-01-19 19:09:00,,0831.3,5.00,0.00,22.2,22.6,00.0,31.1,24.0,11.7,0000.0,0003.75,0002.81,0002.70
2022-01-19 19:10:00,,0831.3,4.99,0.00,22.2,22.3,00.0,31.1,23.9,11.7,0000.0,0003.86,0002.86,0002.73
2022-01-19 19:11:00,,0831.2,5.00,0.00,22.1,22.1,00.0,31.1,23.8,11.7,0000.0,0003.83,0002.85,0002.73
2022-01-19 19:12:00,,0831.2,5.00,0.00,22.1,21.9,00.0,31.1,23.8,11.7,0000.0,0003.81,0002.83,0002.71
2022-01-19 19:13:00,,0831.2,5.01,0.00,22.1,21.8,00.0,31.1,23.7,11.7,0000.0,0003.83,0002.82,0002.70
2022-01-19 19:14:00,,0831.2,4.99,0.00,22.0,21.7,00.0,31.0,23.7,11.7,0000.0,0003.77,0002.82,0002.70
2022-01-19 19:15:00,,0831.1,4.99,0.00,22.0,21.6,00.0,31.0,23.6,11.7,0000.0,0003.49,0002.79,0002.67
2022-01-19 19:16:00,,0831.1,5.02,0.00,22.0,21.5,00.0,31.0,23.6,11.7,0000.0,0003.46,0002.75,0002.63
2022-01-19 19:17:00,,0831.1,4.99,0.00,21.9,21.4,00.0,31.0,23.5,11.8,0000.0,0003.37,0002.69,0002.58
2022-01-19 19:18:00,,0831.2,4.99,0.00,21.9,21.4,00.0,31.0,23.5,11.8,0000.0,0003.24,0002.61,0002.51
2022-01-19 19:19:00,,0831.1,5.00,0.00,21.9,21.3,00.0,31.0,23.5,11.9,0000.0,0003.15,0002.54,0002.44
2022-01-19 19:20:00,,0831.2,5.00,0.00,21.9,21.4,00.0,31.0,23.5,11.9,0000.0,0003.06,0002.47,0002.37
2022-01-19 19:21:00,,0831.1,5.00,0.00,21.9,22.0,00.0,31.0,23.7,11.8,0000.0,0002.92,0002.38,0002.31
2022-01-19 19:22:00,,0831.1,4.99,0.00,22.1,22.8,00.0,31.0,24.0,11.7,0000.0,0002.86,0002.35,0002.28
2022-01-19 19:23:00,,0831.2,5.00,0.00,22.2,23.2,00.0,31.1,24.2,11.7,0000.0,0002.86,0002.36,0002.29
2022-01-19 19:24:00,,0831.2,5.00,0.00,22.3,22.8,00.0,31.1,24.1,11.6,0000.0,0002.80,0002.33,0002.28
2022-01-19 19:25:00,,0831.2,5.00,0.00,22.2,22.6,00.0,31.1,24.1,11.6,0000.0,0002.76,0002.30,0002.24
2022-01-19 19:26:00,,0831.1,5.00,0.00,22.2,22.3,00.0,31.1,23.9,11.6,0000.0,0002.75,0002.28,0002.22
2022-01-19 19:27:00,,0831.2,5.00,0.00,22.2,22.1,00.0,31.1,23.8,11.6,0000.0,0002.76,0002.29,0002.22
2022-01-19 19:28:00,,0831.1,4.99,0.00,22.1,21.9,00.0,31.1,23.8,11.7,0000.0,0002.79,0002.31,0002.23
2022-01-19 19:29:00,,0831.1,5.00,0.00,22.1,21.7,00.0,31.1,23.7,11.7,0000.0,0002.83,0002.32,0002.23
2022-01-19 19:30:00,,0831.1,5.01,0.00,22.0,21.5,00.0,31.1,23.6,11.7,0000.0,0002.88,0002.33,0002.23
2022-01-19 19:31:00,,0831.1,4.99,0.00,22.0,21.3,00.0,31.1,23.5,11.8,0000.0,0002.92,0002.33,0002.23
2022-01-19 19:32:00,,0831.1,5.01,0.00,21.9,21.1,00.0,31.0,23.4,11.9,0000.0,0003.06,0002.35,0002.23
2022-01-19 19:33:00,,0831.1,5.00,0.00,21.8,21.0,00.0,31.0,23.3,11.9,0000.0,0003.09,0002.34,0002.22
2022-01-19 19:34:00,,0831.1,5.00,0.00,21.8,21.0,00.0,31.0,23.3,11.9,0000.0,0003.05,0002.30,0002.17
2022-01-19 19:35:00,,0831.1,5.01,0.00,21.7,20.9,00.0,30.9,23.2,11.9,0000.0,0003.02,0002.27,0002.14
2022-01-19 19:36:00,,0831.2,4.99,0.00,21.7,21.0,00.0,30.9,23.2,12.0,0000.0,0002.97,0002.25,0002.12
2022-01-19 19:37:00,,0831.2,5.01,0.00,21.8,21.7,00.0,30.9,23.5,12.0,0000.0,0002.94,0002.23,0002.11
2022-01-19 19:38:00,,0831.1,4.99,0.00,21.9,22.5,00.0,30.9,23.8,11.9,0000.0,0002.90,0002.20,0002.08
2022-01-19 19:39:00,,0831.2,5.01,0.00,22.1,22.9,00.0,31.0,24.0,11.8,0000.0,0002.85,0002.17,0002.05
2022-01-19 19:40:00,,0831.2,5.00,0.00,22.1,22.5,00.0,31.0,23.9,11.7,0000.0,0002.79,0002.13,0002.02
2022-01-19 19:41:00,,0831.2,5.00,0.00,22.0,22.2,00.0,31.0,23.8,11.7,0000.0,0002.72,0002.10,0002.00
2022-01-19 19:42:00,,0831.2,5.00,0.00,22.0,21.8,00.0,31.0,23.7,11.8,0000.0,0002.65,0002.06,0001.98
2022-01-19 19:43:00,,0831.2,4.99,0.00,22.0,21.6,00.0,31.0,23.6,11.8,0000.0,0002.49,0002.03,0001.95
2022-01-19 19:44:00,,0831.2,5.00,0.00,21.9,21.5,00.0,31.0,23.5,11.8,0000.0,0002.47,0002.01,0001.93
2022-01-19 19:45:00,,0831.2,5.00,0.00,21.9,21.4,00.0,31.0,23.4,11.8,0000.0,0002.38,0001.96,0001.89
2022-01-19 19:46:00,,0831.2,4.99,0.00,21.8,21.3,00.0,30.9,23.3,11.9,0000.0,0002.36,0001.94,0001.88
2022-01-19 19:47:00,,0831.2,5.00,0.00,21.7,21.2,00.0,30.9,23.3,11.9,0000.0,0002.35,0001.91,0001.85
2022-01-19 19:48:00,,0831.2,5.01,0.00,21.7,21.1,00.0,30.9,23.3,11.9,0000.0,0002.32,0001.88,0001.81
2022-01-19 19:49:00,,0831.2,4.99,0.00,21.7,21.1,00.0,30.9,23.2,12.0,0000.0,0002.26,0001.83,0001.77
2022-01-19 19:50:00,,0831.2,4.99,0.00,21.7,21.0,00.0,30.8,23.2,12.1,0000.0,0002.21,0001.79,0001.74
2022-01-19 19:51:00,,0831.2,5.00,0.00,21.6,21.1,00.0,30.8,23.2,12.1,0000.0,0002.18,0001.76,0001.72
2022-01-19 19:52:00,,0831.2,5.00,0.00,21.7,21.8,00.0,30.8,23.5,12.0,0000.0,0002.15,0001.73,0001.69
2022-01-19 19:53:00,,0831.2,5.01,0.00,21.9,22.7,00.0,30.9,23.8,11.9,0000.0,0002.13,0001.71,0001.67
2022-01-19 19:54:00,,0831.2,4.99,0.00,22.0,23.0,00.0,30.9,24.0,11.8,0000.0,0002.10,0001.69,0001.65
2022-01-19 19:55:00,,0831.2,5.01,0.00,22.1,22.7,00.0,30.9,24.0,11.8,0000.0,0002.07,0001.67,0001.64
2022-01-19 19:56:00,,0831.1,5.00,0.00,22.1,22.4,00.0,30.9,23.9,11.8,0000.0,0002.37,0001.69,0001.65
2022-01-19 19:57:00,,0831.2,5.00,0.00,22.1,22.0,00.0,30.9,23.8,11.9,0000.0,0002.50,0001.70,0001.66
2022-01-19 19:58:00,,0831.2,5.00,0.00,22.0,21.8,00.0,30.9,23.7,11.9,0000.0,0002.52,0001.71,0001.67
2022-01-19 19:59:00,,0831.2,5.00,0.00,22.0,21.7,00.0,30.9,23.6,11.9,0000.0,0002.53,0001.72,0001.67
